Location: Home
(51.5204°N, 2.5456°W)
Time: 07:16:46
(UTC+00:00)

N. Korean satellite - Pass Details

Date: 14 October 2019
Orbit: 456 x 506 km, 97.2° (Epoch: 16 November)

Event Time Altitude Azimuth Distance (km) Brightness Sun altitude
Rises 06:44:19 0° 19° (NNE) 2,529 10.4 -8.2°
Reaches altitude 10° 06:46:28 10° 28° (NNE) 1,654 9.6 -7.8°
Maximum altitude 06:49:48 37° 98° (E) 768 8.4 -7.3°
Drops below altitude 10° 06:53:09 10° 167° (SSE) 1,667 9.5 -6.8°
Sets 06:55:20 0° 175° (S) 2,551 10.4 -6.4°
